Flag for United Arab Emirates Weather past 2 weeks in Abu Dhabi, Abu Dhabi, United Arab Emirates

75 °F

Passing clouds.

Feels Like: 77 °F
Forecast: 74 / 81 °F
Wind: 3 mph from Northeast

Location: Abu Dhabi Bateen Airport

Current Time: Dec 1, 2015 at 1:48:39 AM

Latest Report: Dec 1, 2015 at 1:00 AM

Visibility: N/A

Pressure: 30.04 "Hg

Humidity: 74%

Dew point: 66 °F

Historic Weather in Abu Dhabi — Graph


Abu Dhabi temperature yesterday

Maximum temperature yesterday: 82 °F (at 12:00 PM)
Minimum temperature yesterday: 68 °F (at 7:00 AM)
Average temperature yesterday: 76 °F

Past Weeks' High & Low Weather Summary

High90 °F (Nov 16, 1:00 PM)88% (Nov 17, 7:00 AM)30.12 "Hg (Nov 17, 7:00 AM)
Low66 °F (Nov 23, 5:00 AM)22% (Nov 17, 2:00 PM)29.89 "Hg (Nov 17, 4:00 PM)
Average78 °F57%30.00 "Hg
* Reported Midnight between Nov 15 and Nov 16 — Midnight between Nov 30 and Dec 1, Abu Dhabi, Weather by CustomWeather, © 2015

Note: Actual official high and low records may vary slightly from our data, if they occured in-between our weather recording intervals... More about our weather records


Abu Dhabi weather history for previous 24 hours

Time TempWeatherWind HumidityBarometerVisibility
12:00 AM
Tue, Dec 1
75 °FPassing clouds.7 mph74%30.04 "HgN/A
11:00 PM
Mon, Nov 30
75 °FPassing clouds.5 mph65%30.07 "HgN/A
10:00 PM77 °FPassing clouds.6 mph61%30.07 "HgN/A
9:00 PM77 °FPassing clouds.5 mph61%30.07 "HgN/A
8:00 PM77 °FPassing clouds.7 mph61%30.07 "HgN/A
7:00 PM77 °FClear.10 mph57%30.04 "Hg10 mi
6:00 PM79 °FClear.10 mph54%30.04 "Hg10 mi
5:00 PM81 °FSunny.12 mph48%30.04 "Hg10 mi
4:00 PM81 °FSunny.12 mph54%30.01 "Hg10 mi
3:00 PM81 °FPassing clouds.14 mph51%30.04 "HgN/A
2:00 PM82 °FPassing clouds.12 mph45%30.04 "HgN/A
1:00 PM82 °FPassing clouds.8 mph37%30.07 "HgN/A
12:00 PM82 °FPassing clouds.7 mph35%30.09 "HgN/A
11:00 AM81 °FPassing clouds.5 mph51%30.09 "HgN/A
10:00 AM77 °FPassing clouds.3 mph65%30.12 "HgN/A
9:00 AM73 °FPassing clouds.2 mph69%30.09 "HgN/A
8:00 AM72 °FPassing clouds.2 mph78%30.09 "HgN/A
7:00 AM68 °FPassing clouds.1 mph83%30.07 "HgN/A
6:00 AM70 °FPassing clouds.3 mph73%30.07 "HgN/A
5:00 AM70 °FPassing clouds.1 mph69%30.04 "HgN/A
4:00 AM70 °FPassing clouds.1 mph69%30.04 "HgN/A
3:00 AM72 °FClear.2 mph65%30.04 "Hg10 mi
2:00 AM73 °FClear.2 mph57%30.04 "Hg10 mi
1:00 AM73 °FClear.2 mph61%30.04 "Hg10 mi
Weather by CustomWeather, © 2015

See weather overviewHow to use our weather pages